FW5423 Weather Reports


Display with metric or nautical units.
time (UTC)temp
F
wind
direction
speed
MPH
gust
MPH
rain 1hr
in
rain 24hr
in
rain mn
in
humidity
%
barometer
mb
20260504213545 59 359 2.0 4.0 0.00 0.01 0.00 96 1017.9
20260504213102 60 359 0.0 3.0 0.00 0.01 0.00 96 1017.9
20260504212546 60 359 1.0 6.0 0.00 0.01 0.00 96 1017.7
20260504212047 60 359 3.0 7.0 0.00 0.01 0.00 96 1017.4
20260504211544 60 359 4.0 7.0 0.00 0.01 0.00 97 1017.2
20260504211044 60 359 5.0 8.0 0.00 0.01 0.00 96 1017.1
20260504210544 60 359 5.0 9.0 0.00 0.01 0.00 96 1016.9
20260504210047 60 359 5.0 9.0 0.00 0.01 0.00 96 1016.9
20260504205045 60 359 6.0 8.0 0.00 0.01 0.00 96 1016.8
20260504204547 61 359 5.0 7.0 0.00 0.01 0.00 96 1017.1
20260504204044 61 359 4.0 7.0 0.00 0.01 0.00 96 1017.1
20260504203548 61 359 6.0 7.0 0.00 0.01 0.00 96 1017.1
20260504203056 61 359 5.0 7.0 0.00 0.01 0.00 96 1017.0
20260504202545 61 359 4.0 6.0 0.00 0.01 0.00 96 1017.0
20260504202043 61 359 0.0 3.0 0.00 0.01 0.00 97 1017.3
20260504201544 61 359 0.0 6.0 0.00 0.01 0.00 96 1017.3
20260504201044 60 359 3.0 6.0 0.00 0.01 0.00 96 1017.2
20260504200544 60 359 4.0 6.0 0.00 0.01 0.00 97 1017.1
20260504200049 60 359 2.0 5.0 0.00 0.01 0.00 97 1017.0
20260504195045 61 359 2.0 4.0 0.00 0.01 0.00 96 1017.2
20260504194556 61 359 0.0 5.0 0.00 0.01 0.00 96 1017.1
20260504194042 61 359 2.0 5.0 0.00 0.01 0.00 95 1017.1
20260504193545 61 359 0.0 4.0 0.00 0.01 0.00 96 1017.1
20260504193051 62 359 0.0 4.0 0.00 0.01 0.00 95 1017.1
20260504192542 62 359 0.0 4.0 0.00 0.01 0.00 96 1017.1
20260504192041 62 359 0.0 4.0 0.00 0.01 0.00 94 1017.2
20260504191541 61 359 1.0 4.0 0.00 0.01 0.00 94 1017.1
20260504191042 61 359 2.0 5.0 0.00 0.01 0.00 94 1016.9
20260504190545 61 359 2.0 6.0 0.00 0.01 0.00 94 1017.0
20260504190042 61 359 4.0 8.0 0.00 0.01 0.00 94 1017.0
20260504185042 61 359 5.0 8.0 0.00 0.01 0.00 94 1016.9
20260504184542 61 359 5.0 7.0 0.00 0.01 0.00 95 1016.9
20260504184041 61 359 3.0 5.0 0.00 0.01 0.00 95 1017.1
20260504183544 61 359 3.0 6.0 0.00 0.01 0.00 94 1017.2
20260504183040 61 359 3.0 7.0 0.00 0.01 0.00 94 1017.3
20260504182544 61 359 4.0 7.0 0.00 0.01 0.00 94 1017.2
20260504182041 61 359 4.0 8.0 0.00 0.01 0.00 94 1017.1
20260504181543 61 359 5.0 8.0 0.00 0.01 0.00 93 1017.2
20260504181039 62 359 4.0 6.0 0.00 0.01 0.00 93 1017.3
20260504180541 62 359 3.0 6.0 0.00 0.01 0.00 93 1017.4
20260504180039 62 359 4.0 9.0 0.00 0.01 0.00 92 1017.4
20260504175043 62 359 6.0 11.0 0.00 0.01 0.00 92 1017.5
20260504174543 62 359 7.0 11.0 0.00 0.01 0.00 92 1017.4
20260504174041 62 359 6.0 10.0 0.00 0.01 0.00 93 1017.5
20260504173542 61 359 7.0 10.0 0.00 0.01 0.00 93 1017.7
20260504173048 61 359 6.0 10.0 0.00 0.01 0.00 93 1017.6
20260504172539 61 359 7.0 10.0 0.00 0.01 0.00 93 1017.7
20260504172038 61 359 6.0 11.0 0.00 0.01 0.00 93 1017.9
20260504171538 61 359 7.0 11.0 0.00 0.01 0.00 93 1018.0
20260504171037 61 359 6.0 13.0 0.00 0.01 0.00 93 1018.3
20260504170536 61 359 9.0 13.0 0.00 0.01 0.00 93 1018.3
20260504151015 56 359 9.0 15.0 0.00 0.01 0.00 99 1019.9
20260504150514 56 359 8.0 17.0 0.00 0.01 0.00 99 1020.0
20260504141011 56 359 13.0 21.0 0.00 0.01 0.00 99 1020.5
20260504140509 55 359 15.0 21.0 0.00 0.01 0.00 99 1020.5
20260504130503 55 359 10.0 16.0 0.00 0.01 0.00 99 1020.7
20260504110547 53 359 11.0 16.0 0.00 0.02 0.00 99 1019.7
20260504100537 52 359 11.0 16.0 0.00 0.02 0.00 99 1019.6
20260504081528 51 359 7.0 12.0 0.00 0.02 0.02 99 1018.2
20260504081028 51 359 7.0 10.0 0.00 0.02 0.02 99 1018.1
20260504080528 51 354 7.0 10.0 0.00 0.02 0.02 99 1017.9
20260504050526 52 31 3.0 6.0 0.00 0.02 0.02 99 1019.7
20260504050024 52 35 2.0 8.0 0.00 0.02 0.02 99 1019.7
20260504045023 52 43 4.0 8.0 0.00 0.02 0.02 99 1019.8
20260504044536 52 45 6.0 9.0 0.00 0.02 0.02 99 1019.6
20260504044024 52 27 5.0 9.0 0.00 0.02 0.02 99 1019.6
20260504043523 52 14 5.0 11.0 0.00 0.02 0.02 99 1019.7
20260504043023 52 43 5.0 11.0 0.00 0.02 0.02 99 1019.8
20260504042523 52 70 6.0 10.0 0.00 0.02 0.02 99 1019.8
20260504042022 51 4 4.0 10.0 0.00 0.02 0.02 99 1019.7
20260504041522 51 36 4.0 10.0 0.00 0.02 0.02 99 1019.7
20260504041022 51 17 2.0 7.0 0.00 0.02 0.02 99 1019.7
20260504040526 51 101 2.0 6.0 0.00 0.02 0.02 99 1019.6
20260504040023 51 83 2.0 6.0 0.00 0.02 0.02 99 1019.8
20260504035021 51 359 2.0 9.0 0.00 0.02 0.02 99 1020.1
20260504034532 51 42 4.0 9.0 0.00 0.02 0.02 99 1020.3
20260504034021 51 63 4.0 9.0 0.00 0.02 0.02 99 1020.3
20260504033521 51 44 6.0 9.0 0.00 0.02 0.02 99 1020.5
20260504033029 51 49 4.0 8.0 0.00 0.02 0.02 99 1020.6
20260504032521 51 66 2.0 5.0 0.00 0.02 0.02 99 1020.6
20260504032024 51 4 1.0 5.0 0.00 0.02 0.02 99 1020.7
20260504031522 51 125 1.0 6.0 0.00 0.02 0.02 99 1020.8
20260504031019 51 83 3.0 6.0 0.01 0.02 0.02 99 1020.7
20260504030519 51 145 0.0 6.0 0.01 0.02 0.02 99 1020.9
20260504030020 51 143 2.0 6.0 0.01 0.02 0.02 99 1020.7
20260504025021 51 118 2.0 7.0 0.01 0.02 0.02 99 1020.8
20260504024523 51 21 1.0 7.0 0.01 0.02 0.02 99 1020.9
20260504024021 51 12 2.0 7.0 0.01 0.02 0.02 99 1020.8
20260504023523 50 114 1.0 6.0 0.01 0.02 0.02 99 1020.8
20260504023021 50 359 3.0 8.0 0.01 0.02 0.02 99 1020.6
20260504022521 50 249 2.0 10.0 0.01 0.02 0.02 99 1020.7
20260504022020 50 359 2.0 10.0 0.01 0.02 0.02 99 1020.7
20260504021530 50 249 2.0 8.0 0.01 0.02 0.02 99 1020.7
20260504021021 50 359 2.0 8.0 0.00 0.01 0.01 99 1020.7
20260504020522 50 359 2.0 6.0 0.00 0.01 0.01 99 1020.8
20260504020021 50 359 2.0 6.0 0.00 0.01 0.01 99 1020.8
20260504015025 50 171 3.0 7.0 0.00 0.01 0.01 99 1020.9
20260504014521 50 83 2.0 8.0 0.00 0.01 0.01 99 1020.8
20260504014021 50 23 2.0 8.0 0.00 0.01 0.01 99 1020.8
20260504013525 50 359 2.0 7.0 0.00 0.01 0.01 99 1020.8
20260504013032 50 102 3.0 7.0 0.00 0.01 0.01 99 1020.9
20260504012521 50 70 2.0 8.0 0.00 0.01 0.01 99 1021.0
20260504012022 50 99 3.0 8.0 0.00 0.01 0.01 99 1020.9
20260504011520 50 109 1.0 6.0 0.00 0.01 0.01 99 1020.9
20260504011020 50 255 3.0 9.0 0.00 0.01 0.01 99 1020.8
20260504010522 50 4 2.0 9.0 0.00 0.01 0.01 99 1020.9
20260504010021 50 213 2.0 9.0 0.00 0.01 0.01 99 1020.9
20260504005022 50 250 2.0 8.0 0.00 0.01 0.01 99 1021.0
20260504004522 50 191 1.0 5.0 0.00 0.01 0.01 99 1021.1
20260504004021 50 50 2.0 5.0 0.00 0.01 0.01 99 1021.0
20260504003521 49 359 1.0 6.0 0.00 0.01 0.01 99 1021.0
20260504003021 49 175 2.0 6.0 0.00 0.01 0.01 99 1021.0
20260504002521 49 80 3.0 7.0 0.00 0.01 0.01 99 1021.0
20260504002021 49 143 2.0 7.0 0.00 0.01 0.01 99 1021.0
20260504001520 49 185 1.0 6.0 0.00 0.01 0.01 99 1020.9
20260504001020 49 154 2.0 8.0 0.00 0.01 0.01 99 1020.8
20260504000523 49 359 2.0 8.0 0.00 0.01 0.01 99 1020.7
20260504000020 49 359 1.0 8.0 0.00 0.01 0.01 99 1020.7
20260503235014 49 133 2.0 8.0 0.00 0.01 0.01 99 1020.8
20260503234515 49 226 2.0 8.0 0.00 0.01 0.01 99 1020.6
20260503234018 49 170 3.0 10.0 0.00 0.01 0.01 98 1020.7
20260503233515 49 133 2.0 10.0 0.00 0.01 0.01 98 1020.7
20260503233014 49 359 2.0 10.0 0.00 0.01 0.01 98 1020.7
20260503232514 49 193 3.0 8.0 0.00 0.01 0.01 98 1020.6
20260503232018 49 210 3.0 8.0 0.00 0.01 0.01 98 1020.6
20260503231513 49 244 2.0 8.0 0.00 0.01 0.01 98 1020.6
20260503231014 49 112 3.0 8.0 0.00 0.01 0.01 98 1020.6
20260503230513 49 359 2.0 7.0 0.00 0.01 0.01 98 1020.6
20260503230013 49 359 3.0 7.0 0.00 0.01 0.01 98 1020.4
20260503225013 49 170 1.0 7.0 0.00 0.01 0.01 98 1020.3
20260503224513 49 359 2.0 6.0 0.00 0.01 0.01 98 1020.3
20260503224020 49 194 2.0 6.0 0.00 0.01 0.01 98 1020.0
20260503223513 49 260 2.0 6.0 0.00 0.01 0.01 98 1020.1
20260503223011 49 263 1.0 6.0 0.00 0.01 0.01 98 1020.1
20260503222512 49 156 1.0 7.0 0.00 0.01 0.01 98 1020.1
20260503222013 49 212 3.0 7.0 0.00 0.01 0.01 98 1020.1
20260503221513 49 359 2.0 7.0 0.00 0.01 0.01 98 1019.9
20260503221010 49 141 2.0 7.0 0.00 0.01 0.01 98 1019.9
20260503220510 49 229 1.0 9.0 0.00 0.01 0.01 98 1020.0
20260503220010 49 158 2.0 9.0 0.00 0.01 0.01 98 1019.9
20260503215011 49 83 3.0 9.0 0.00 0.01 0.01 98 1019.9
20260503214509 49 220 1.0 6.0 0.00 0.01 0.01 98 1019.8
20260503214015 49 359 2.0 7.0 0.00 0.01 0.01 98 1019.7